FLOCK 4S-40 (47499 NORAD) Tracking and Keplerian Element Data

This shows tracking and keplerian element data for the satellite.

Feedback or suggestion? Click here.




ElementValue
Catalog47499
NameFLOCK 4S-40
Epoch Orbit1199
Epoch Day101.93791267
Epoch Year2021
RAAN164.38
Inclination97.5027
Eccentricity0.0010216
Argument of Perigee338.1148
Mean Anonmoly21.9645
Mean Motion15.12620507
Decay Rate6.89E-06
L11 47499U 21006CQ 21101.93791267 .00000689 00000-0 43121-4 0 9999
L22 47499 97.5027 164.3800 0010216 338.1148 21.9645 15.12620507 11991

Live tracking and technical data element details for FLOCK 4S-40 (NORAD 47499). FLOCK 4S-40 can be tracked NOW for your location showing map with azimuth and elevation plus other details from your city location.

Track the satellite on the map from your city or location and see movement details for azimuth, elevation, latitude, longitude, range, height, and movement on the map or in text.







IsCatalogInMostPopularTable: catalog: 47499, numindb: 21
Update: records affected: 1



GetName: 47499 FLOCK 4S-40

Hit Count: updated at: Tue, 13 Apr 2021 05:04:32 GMT